owner,sensor,date,latitude,longitude,vertical_datum,sea_water_practical_salinity,qcFlag 
DISL,ioos:station:DISL:MHPA:1,2010-07-01T00:00:00Z,30.6671,-87.9365,4.561,0.48,1111122 
DISL,ioos:station:DISL:MHPA:1,2010-07-01T00:30:00Z,30.6671,-87.9365,4.527,0.48,1111122 
DISL,ioos:station:DISL:MHPA:1,2010-07-01T01:00:00Z,30.6671,-87.9365,4.369,0.48,1111122 
DISL,ioos:station:DISL:MHPA:1,2010-07-01T01:30:00Z,30.6671,-87.9365,4.319,0.48,1111122 
DISL,ioos:station:DISL:MHPA:1,2010-07-01T02:00:00Z,30.6671,-87.9365,4.201,0.48,1111122 
DISL,ioos:station:DISL:MHPA:1,2010-07-01T02:30:00Z,30.6671,-87.9365,4.033,0.48,1111122 
DISL,ioos:station:DISL:MHPA:1,2010-07-01T03:00:00Z,30.6671,-87.9365,3.92,0.47,1111122 
DISL,ioos:station:DISL:MHPA:1,2010-07-01T03:30:00Z,30.6671,-87.9365,3.833,0.47,1111122 
DISL,ioos:station:DISL:MHPA:1,2010-07-01T04:00:00Z,30.6671,-87.9365,3.773,0.47,1111122 
DISL,ioos:station:DISL:MHPA:1,2010-07-01T04:30:00Z,30.6671,-87.9365,3.695,0.47,1111122 
DISL,ioos:station:DISL:MHPA:1,2010-07-01T05:00:00Z,30.6671,-87.9365,3.695,0.46,1111122 
DISL,ioos:station:DISL:MHPA:1,2010-07-01T05:30:00Z,30.6671,-87.9365,3.682,0.45,1111122 
DISL,ioos:station:DISL:MHPA:1,2010-07-01T06:00:00Z,30.6671,-87.9365,3.635,0.45,1111122 
DISL,ioos:station:DISL:MHPA:1,2010-07-01T06:30:00Z,30.6671,-87.9365,3.683,0.44,1111122 
DISL,ioos:station:DISL:MHPA:1,2010-07-01T07:00:00Z,30.6671,-87.9365,3.732,0.45,1111122 
DISL,ioos:station:DISL:MHPA:1,2010-07-01T07:30:00Z,30.6671,-87.9365,3.74,0.45,1111122 
DISL,ioos:station:DISL:MHPA:1,2010-07-01T08:00:00Z,30.6671,-87.9365,3.65,0.45,1111122 
DISL,ioos:station:DISL:MHPA:1,2010-07-01T08:30:00Z,30.6671,-87.9365,3.655,0.45,1111122 
DISL,ioos:station:DISL:MHPA:1,2010-07-01T09:00:00Z,30.6671,-87.9365,3.762,0.46,1111122 
DISL,ioos:station:DISL:MHPA:1,2010-07-01T09:30:00Z,30.6671,-87.9365,3.746,0.46,1111122 
DISL,ioos:station:DISL:MHPA:1,2010-07-01T10:00:00Z,30.6671,-87.9365,3.746,0.46,1111122 
DISL,ioos:station:DISL:MHPA:1,2010-07-01T10:30:00Z,30.6671,-87.9365,3.814,0.46,1111122 
DISL,ioos:station:DISL:MHPA:1,2010-07-01T11:00:00Z,30.6671,-87.9365,3.926,0.46,1111122 
DISL,ioos:station:DISL:MHPA:1,2010-07-01T11:30:00Z,30.6671,-87.9365,4.059,0.46,1111122 
DISL,ioos:station:DISL:MHPA:1,2010-07-01T12:00:00Z,30.6671,-87.9365,4.082,0.46,1111122 
DISL,ioos:station:DISL:MHPA:1,2010-07-01T12:30:00Z,30.6671,-87.9365,4.171,0.46,1111122 
DISL,ioos:station:DISL:MHPA:1,2010-07-01T13:00:00Z,30.6671,-87.9365,4.316,0.46,1111122 
DISL,ioos:station:DISL:MHPA:1,2010-07-01T13:30:00Z,30.6671,-87.9365,4.423,0.46,1111122 
DISL,ioos:station:DISL:MHPA:1,2010-07-01T14:00:00Z,30.6671,-87.9365,4.431,0.46,1111122 
DISL,ioos:station:DISL:MHPA:1,2010-07-01T14:30:00Z,30.6671,-87.9365,4.499,0.46,1111122 
DISL,ioos:station:DISL:MHPA:1,2010-07-01T15:00:00Z,30.6671,-87.9365,4.686,0.46,1111122 
DISL,ioos:station:DISL:MHPA:1,2010-07-01T15:30:00Z,30.6671,-87.9365,5.127,0.46,1111122 
DISL,ioos:station:DISL:MHPA:1,2010-07-01T16:00:00Z,30.6671,-87.9365,4.748,0.46,1111122 
DISL,ioos:station:DISL:MHPA:1,2010-07-01T16:30:00Z,30.6671,-87.9365,4.555,0.46,1111122 
DISL,ioos:station:DISL:MHPA:1,2010-07-01T17:00:00Z,30.6671,-87.9365,4.724,0.46,1111122 
DISL,ioos:station:DISL:MHPA:1,2010-07-01T17:30:00Z,30.6671,-87.9365,4.824,0.46,1111122 
DISL,ioos:station:DISL:MHPA:1,2010-07-01T18:00:00Z,30.6671,-87.9365,4.767,0.46,1111122 
DISL,ioos:station:DISL:MHPA:1,2010-07-01T18:30:00Z,30.6671,-87.9365,4.653,0.46,1111122 
DISL,ioos:station:DISL:MHPA:1,2010-07-01T19:00:00Z,30.6671,-87.9365,4.685,0.46,1111122 
DISL,ioos:station:DISL:MHPA:1,2010-07-01T19:30:00Z,30.6671,-87.9365,4.642,0.47,1111122 
DISL,ioos:station:DISL:MHPA:1,2010-07-01T20:00:00Z,30.6671,-87.9365,4.661,0.46,1111122 
DISL,ioos:station:DISL:MHPA:1,2010-07-01T20:30:00Z,30.6671,-87.9365,4.649,0.46,1111122 
DISL,ioos:station:DISL:MHPA:1,2010-07-01T21:00:00Z,30.6671,-87.9365,4.568,0.47,1111122 
DISL,ioos:station:DISL:MHPA:1,2010-07-01T21:30:00Z,30.6671,-87.9365,4.489,0.47,1111122 
DISL,ioos:station:DISL:MHPA:1,2010-07-01T22:00:00Z,30.6671,-87.9365,4.358,0.47,1111122 
DISL,ioos:station:DISL:MHPA:1,2010-07-01T22:30:00Z,30.6671,-87.9365,4.23,0.47,1111122 
DISL,ioos:station:DISL:MHPA:1,2010-07-01T23:00:00Z,30.6671,-87.9365,4.137,0.46,1111122 
DISL,ioos:station:DISL:MHPA:1,2010-07-01T23:30:00Z,30.6671,-87.9365,4.067,0.46,1111122 
DISL,ioos:station:DISL:MHPA:1,2010-07-02T00:00:00Z,30.6671,-87.9365,3.989,0.46,1111122 
DISL,ioos:station:DISL:MHPA:1,2010-07-02T00:30:00Z,30.6671,-87.9365,3.89,0.46,1111122 
DISL,ioos:station:DISL:MHPA:1,2010-07-02T01:00:00Z,30.6671,-87.9365,3.815,0.46,1111122 
DISL,ioos:station:DISL:MHPA:1,2010-07-02T01:30:00Z,30.6671,-87.9365,3.754,0.46,1111122 
DISL,ioos:station:DISL:MHPA:1,2010-07-02T02:00:00Z,30.6671,-87.9365,3.685,0.46,1111122 
DISL,ioos:station:DISL:MHPA:1,2010-07-02T02:30:00Z,30.6671,-87.9365,3.621,0.46,1111122 
DISL,ioos:station:DISL:MHPA:1,2010-07-02T03:00:00Z,30.6671,-87.9365,3.553,0.46,1111122 
DISL,ioos:station:DISL:MHPA:1,2010-07-02T03:30:00Z,30.6671,-87.9365,3.483,0.46,1111122 
DISL,ioos:station:DISL:MHPA:1,2010-07-02T04:00:00Z,30.6671,-87.9365,3.427,0.46,1111122 
DISL,ioos:station:DISL:MHPA:1,2010-07-02T04:30:00Z,30.6671,-87.9365,3.385,0.46,1111122 
DISL,ioos:station:DISL:MHPA:1,2010-07-02T05:00:00Z,30.6671,-87.9365,3.376,0.46,1111122 
DISL,ioos:station:DISL:MHPA:1,2010-07-02T05:30:00Z,30.6671,-87.9365,3.401,0.46,1111122 
DISL,ioos:station:DISL:MHPA:1,2010-07-02T06:00:00Z,30.6671,-87.9365,3.441,0.46,1111122 
DISL,ioos:station:DISL:MHPA:1,2010-07-02T06:30:00Z,30.6671,-87.9365,3.457,0.46,1111122 
DISL,ioos:station:DISL:MHPA:1,2010-07-02T07:00:00Z,30.6671,-87.9365,3.53,0.46,1111122 
DISL,ioos:station:DISL:MHPA:1,2010-07-02T07:30:00Z,30.6671,-87.9365,3.567,0.45,1111122 
DISL,ioos:station:DISL:MHPA:1,2010-07-02T08:00:00Z,30.6671,-87.9365,3.665,0.45,1111122 
DISL,ioos:station:DISL:MHPA:1,2010-07-02T08:30:00Z,30.6671,-87.9365,3.774,0.45,1111122 
DISL,ioos:station:DISL:MHPA:1,2010-07-02T09:00:00Z,30.6671,-87.9365,3.856,0.45,1111122 
DISL,ioos:station:DISL:MHPA:1,2010-07-02T09:30:00Z,30.6671,-87.9365,3.886,0.45,1111122 
DISL,ioos:station:DISL:MHPA:1,2010-07-02T10:00:00Z,30.6671,-87.9365,3.934,0.45,1111122 
DISL,ioos:station:DISL:MHPA:1,2010-07-02T10:30:00Z,30.6671,-87.9365,3.972,0.45,1111122 
DISL,ioos:station:DISL:MHPA:1,2010-07-02T11:00:00Z,30.6671,-87.9365,4.03,0.45,1111122 
DISL,ioos:station:DISL:MHPA:1,2010-07-02T11:30:00Z,30.6671,-87.9365,4.127,0.45,1111122 
DISL,ioos:station:DISL:MHPA:1,2010-07-02T12:00:00Z,30.6671,-87.9365,4.147,0.45,1111122 
DISL,ioos:station:DISL:MHPA:1,2010-07-02T12:30:00Z,30.6671,-87.9365,4.148,0.45,1111122 
DISL,ioos:station:DISL:MHPA:1,2010-07-02T13:00:00Z,30.6671,-87.9365,4.102,0.45,1111122 
DISL,ioos:station:DISL:MHPA:1,2010-07-02T13:30:00Z,30.6671,-87.9365,4.088,0.45,1111122 
DISL,ioos:station:DISL:MHPA:1,2010-07-02T14:00:00Z,30.6671,-87.9365,4.171,0.45,1111122 
DISL,ioos:station:DISL:MHPA:1,2010-07-02T14:30:00Z,30.6671,-87.9365,4.126,0.46,1111122 
DISL,ioos:station:DISL:MHPA:1,2010-07-02T15:00:00Z,30.6671,-87.9365,4.057,0.46,1111122 
DISL,ioos:station:DISL:MHPA:1,2010-07-02T15:30:00Z,30.6671,-87.9365,4.08,0.45,1111122 
DISL,ioos:station:DISL:MHPA:1,2010-07-02T16:00:00Z,30.6671,-87.9365,4.05,0.45,1111122 
DISL,ioos:station:DISL:MHPA:1,2010-07-02T16:30:00Z,30.6671,-87.9365,4.015,0.45,1111122 
DISL,ioos:station:DISL:MHPA:1,2010-07-02T17:00:00Z,30.6671,-87.9365,4.024,0.45,1111122 
DISL,ioos:station:DISL:MHPA:1,2010-07-02T17:30:00Z,30.6671,-87.9365,4.024,0.45,1111122 
DISL,ioos:station:DISL:MHPA:1,2010-07-02T18:00:00Z,30.6671,-87.9365,4.015,0.45,1111122 
DISL,ioos:station:DISL:MHPA:1,2010-07-02T18:30:00Z,30.6671,-87.9365,4.044,0.45,1111122 
DISL,ioos:station:DISL:MHPA:1,2010-07-02T19:00:00Z,30.6671,-87.9365,4.109,0.45,1111122 
DISL,ioos:station:DISL:MHPA:1,2010-07-02T19:30:00Z,30.6671,-87.9365,4.213,0.43,1111122 
DISL,ioos:station:DISL:MHPA:1,2010-07-02T20:00:00Z,30.6671,-87.9365,4.471,0.43,1111122 
DISL,ioos:station:DISL:MHPA:1,2010-07-02T20:30:00Z,30.6671,-87.9365,4.429,0.41,1111122 
DISL,ioos:station:DISL:MHPA:1,2010-07-02T21:00:00Z,30.6671,-87.9365,4.406,0.4,1111122 
DISL,ioos:station:DISL:MHPA:1,2010-07-02T21:30:00Z,30.6671,-87.9365,4.405,0.4,1111122 
DISL,ioos:station:DISL:MHPA:1,2010-07-02T22:00:00Z,30.6671,-87.9365,4.454,0.4,1111122 
DISL,ioos:station:DISL:MHPA:1,2010-07-02T22:30:00Z,30.6671,-87.9365,4.413,0.41,1111122 
DISL,ioos:station:DISL:MHPA:1,2010-07-02T23:00:00Z,30.6671,-87.9365,4.456,0.4,1111122 
DISL,ioos:station:DISL:MHPA:1,2010-07-02T23:30:00Z,30.6671,-87.9365,4.393,0.4,1111122 
DISL,ioos:station:DISL:MHPA:1,2010-07-03T00:00:00Z,30.6671,-87.9365,4.299,0.41,1111122 
DISL,ioos:station:DISL:MHPA:1,2010-07-03T00:30:00Z,30.6671,-87.9365,4.239,0.41,1111122 
DISL,ioos:station:DISL:MHPA:1,2010-07-03T01:00:00Z,30.6671,-87.9365,4.142,0.41,1111122 
DISL,ioos:station:DISL:MHPA:1,2010-07-03T01:30:00Z,30.6671,-87.9365,4.064,0.41,1111122 
DISL,ioos:station:DISL:MHPA:1,2010-07-03T02:00:00Z,30.6671,-87.9365,4.015,0.41,1111122 
DISL,ioos:station:DISL:MHPA:1,2010-07-03T02:30:00Z,30.6671,-87.9365,3.975,0.41,1111122 
DISL,ioos:station:DISL:MHPA:1,2010-07-03T03:00:00Z,30.6671,-87.9365,3.949,0.41,1111122 
DISL,ioos:station:DISL:MHPA:1,2010-07-03T03:30:00Z,30.6671,-87.9365,3.909,0.41,1111122 
DISL,ioos:station:DISL:MHPA:1,2010-07-03T04:00:00Z,30.6671,-87.9365,3.671,0.41,1111122 
DISL,ioos:station:DISL:MHPA:1,2010-07-03T04:30:00Z,30.6671,-87.9365,3.757,0.42,1111122 
DISL,ioos:station:DISL:MHPA:1,2010-07-03T05:00:00Z,30.6671,-87.9365,3.655,0.42,1111122 
DISL,ioos:station:DISL:MHPA:1,2010-07-03T05:30:00Z,30.6671,-87.9365,3.772,0.42,1111122 
DISL,ioos:station:DISL:MHPA:1,2010-07-03T06:00:00Z,30.6671,-87.9365,3.766,0.42,1111122 
DISL,ioos:station:DISL:MHPA:1,2010-07-03T06:30:00Z,30.6671,-87.9365,3.884,0.43,1111122 
DISL,ioos:station:DISL:MHPA:1,2010-07-03T07:00:00Z,30.6671,-87.9365,3.759,0.42,1111122 
DISL,ioos:station:DISL:MHPA:1,2010-07-03T07:30:00Z,30.6671,-87.9365,3.787,0.41,1111122 
DISL,ioos:station:DISL:MHPA:1,2010-07-03T08:00:00Z,30.6671,-87.9365,3.906,0.42,1111122 
DISL,ioos:station:DISL:MHPA:1,2010-07-03T08:30:00Z,30.6671,-87.9365,3.904,0.42,1111122 
DISL,ioos:station:DISL:MHPA:1,2010-07-03T09:00:00Z,30.6671,-87.9365,4.014,0.42,1111122 
DISL,ioos:station:DISL:MHPA:1,2010-07-03T09:30:00Z,30.6671,-87.9365,4.094,0.42,1111122 
DISL,ioos:station:DISL:MHPA:1,2010-07-03T10:00:00Z,30.6671,-87.9365,4.044,0.41,1111122 
DISL,ioos:station:DISL:MHPA:1,2010-07-03T10:30:00Z,30.6671,-87.9365,4.166,0.42,1111122 
DISL,ioos:station:DISL:MHPA:1,2010-07-03T11:00:00Z,30.6671,-87.9365,4.241,0.42,1111122 
DISL,ioos:station:DISL:MHPA:1,2010-07-03T11:30:00Z,30.6671,-87.9365,4.229,0.42,1111122 
DISL,ioos:station:DISL:MHPA:1,2010-07-03T12:00:00Z,30.6671,-87.9365,4.288,0.42,1111122 
DISL,ioos:station:DISL:MHPA:1,2010-07-03T12:30:00Z,30.6671,-87.9365,4.304,0.42,1111122 
DISL,ioos:station:DISL:MHPA:1,2010-07-03T13:00:00Z,30.6671,-87.9365,4.356,0.41,1111122 
DISL,ioos:station:DISL:MHPA:1,2010-07-03T13:30:00Z,30.6671,-87.9365,4.38,0.41,1111122 
DISL,ioos:station:DISL:MHPA:1,2010-07-03T14:00:00Z,30.6671,-87.9365,4.423,0.4,1111122 
DISL,ioos:station:DISL:MHPA:1,2010-07-03T14:30:00Z,30.6671,-87.9365,4.47,0.4,1111122 
DISL,ioos:station:DISL:MHPA:1,2010-07-03T15:00:00Z,30.6671,-87.9365,4.512,0.4,1111122 
DISL,ioos:station:DISL:MHPA:1,2010-07-03T15:30:00Z,30.6671,-87.9365,4.533,0.41,1111122 
DISL,ioos:station:DISL:MHPA:1,2010-07-03T16:00:00Z,30.6671,-87.9365,4.527,0.41,1111122 
DISL,ioos:station:DISL:MHPA:1,2010-07-03T16:30:00Z,30.6671,-87.9365,4.492,0.4,1111122 
DISL,ioos:station:DISL:MHPA:1,2010-07-03T17:00:00Z,30.6671,-87.9365,4.505,0.4,1111122 
DISL,ioos:station:DISL:MHPA:1,2010-07-03T17:30:00Z,30.6671,-87.9365,4.583,0.41,1111122 
DISL,ioos:station:DISL:MHPA:1,2010-07-03T18:00:00Z,30.6671,-87.9365,4.543,0.41,1111122 
DISL,ioos:station:DISL:MHPA:1,2010-07-03T18:30:00Z,30.6671,-87.9365,4.462,0.41,1111122 
DISL,ioos:station:DISL:MHPA:1,2010-07-03T19:00:00Z,30.6671,-87.9365,4.465,0.4,1111122 
DISL,ioos:station:DISL:MHPA:1,2010-07-03T19:30:00Z,30.6671,-87.9365,4.534,0.39,1111122 
DISL,ioos:station:DISL:MHPA:1,2010-07-03T20:00:00Z,30.6671,-87.9365,4.516,0.39,1111122 
DISL,ioos:station:DISL:MHPA:1,2010-07-03T20:30:00Z,30.6671,-87.9365,4.54,0.39,1111122 
DISL,ioos:station:DISL:MHPA:1,2010-07-03T21:00:00Z,30.6671,-87.9365,4.544,0.37,1111122 
DISL,ioos:station:DISL:MHPA:1,2010-07-03T21:30:00Z,30.6671,-87.9365,4.532,0.38,1111122 
DISL,ioos:station:DISL:MHPA:1,2010-07-03T22:00:00Z,30.6671,-87.9365,4.478,0.37,1111122 
DISL,ioos:station:DISL:MHPA:1,2010-07-03T22:30:00Z,30.6671,-87.9365,4.497,0.38,1111122 
DISL,ioos:station:DISL:MHPA:1,2010-07-03T23:00:00Z,30.6671,-87.9365,4.513,0.4,1111122 
DISL,ioos:station:DISL:MHPA:1,2010-07-03T23:30:00Z,30.6671,-87.9365,4.497,0.4,1111122 
DISL,ioos:station:DISL:MHPA:1,2010-07-04T00:00:00Z,30.6671,-87.9365,4.458,0.4,1111122 
DISL,ioos:station:DISL:MHPA:1,2010-07-04T00:30:00Z,30.6671,-87.9365,4.388,0.4,1111122 
DISL,ioos:station:DISL:MHPA:1,2010-07-04T01:00:00Z,30.6671,-87.9365,4.441,0.4,1111122 
DISL,ioos:station:DISL:MHPA:1,2010-07-04T01:30:00Z,30.6671,-87.9365,4.446,0.39,1111122 
DISL,ioos:station:DISL:MHPA:1,2010-07-04T02:00:00Z,30.6671,-87.9365,4.416,0.38,1111122 
DISL,ioos:station:DISL:MHPA:1,2010-07-04T02:30:00Z,30.6671,-87.9365,4.302,0.38,1111122 
DISL,ioos:station:DISL:MHPA:1,2010-07-04T03:00:00Z,30.6671,-87.9365,4.252,0.38,1111122 
DISL,ioos:station:DISL:MHPA:1,2010-07-04T03:30:00Z,30.6671,-87.9365,4.228,0.38,1111122 
DISL,ioos:station:DISL:MHPA:1,2010-07-04T04:00:00Z,30.6671,-87.9365,4.132,0.38,1111122 
DISL,ioos:station:DISL:MHPA:1,2010-07-04T04:30:00Z,30.6671,-87.9365,4.089,0.37,1111122 
DISL,ioos:station:DISL:MHPA:1,2010-07-04T05:00:00Z,30.6671,-87.9365,4.139,0.37,1111122 
DISL,ioos:station:DISL:MHPA:1,2010-07-04T05:30:00Z,30.6671,-87.9365,4.126,0.38,1111122 
DISL,ioos:station:DISL:MHPA:1,2010-07-04T06:00:00Z,30.6671,-87.9365,4.136,0.38,1111122 
DISL,ioos:station:DISL:MHPA:1,2010-07-04T06:30:00Z,30.6671,-87.9365,4.23,0.39,1111122 
DISL,ioos:station:DISL:MHPA:1,2010-07-04T07:00:00Z,30.6671,-87.9365,4.28,0.39,1111122 
DISL,ioos:station:DISL:MHPA:1,2010-07-04T07:30:00Z,30.6671,-87.9365,4.232,0.39,1111122 
DISL,ioos:station:DISL:MHPA:1,2010-07-04T08:00:00Z,30.6671,-87.9365,4.239,0.39,1111122 
DISL,ioos:station:DISL:MHPA:1,2010-07-04T08:30:00Z,30.6671,-87.9365,4.295,0.39,1111122 
DISL,ioos:station:DISL:MHPA:1,2010-07-04T09:00:00Z,30.6671,-87.9365,4.347,0.39,1111122 
DISL,ioos:station:DISL:MHPA:1,2010-07-04T09:30:00Z,30.6671,-87.9365,4.398,0.39,1111122 
DISL,ioos:station:DISL:MHPA:1,2010-07-04T10:00:00Z,30.6671,-87.9365,4.458,0.39,1111122 
DISL,ioos:station:DISL:MHPA:1,2010-07-04T10:30:00Z,30.6671,-87.9365,4.542,0.39,1111122 
DISL,ioos:station:DISL:MHPA:1,2010-07-04T11:00:00Z,30.6671,-87.9365,4.593,0.4,1111122 
DISL,ioos:station:DISL:MHPA:1,2010-07-04T11:30:00Z,30.6671,-87.9365,4.616,0.39,1111122 
DISL,ioos:station:DISL:MHPA:1,2010-07-04T12:00:00Z,30.6671,-87.9365,4.681,0.4,1111122 
DISL,ioos:station:DISL:MHPA:1,2010-07-04T12:30:00Z,30.6671,-87.9365,4.685,0.4,1111122 
DISL,ioos:station:DISL:MHPA:1,2010-07-04T13:00:00Z,30.6671,-87.9365,4.718,0.39,1111122 
DISL,ioos:station:DISL:MHPA:1,2010-07-04T13:30:00Z,30.6671,-87.9365,4.781,0.37,1111122 
DISL,ioos:station:DISL:MHPA:1,2010-07-04T14:00:00Z,30.6671,-87.9365,4.743,0.36,1111122 
DISL,ioos:station:DISL:MHPA:1,2010-07-04T14:30:00Z,30.6671,-87.9365,4.71,0.36,1111122 
DISL,ioos:station:DISL:MHPA:1,2010-07-04T15:00:00Z,30.6671,-87.9365,4.663,0.36,1111122 
DISL,ioos:station:DISL:MHPA:1,2010-07-04T15:30:00Z,30.6671,-87.9365,4.644,0.36,1111122 
DISL,ioos:station:DISL:MHPA:1,2010-07-04T16:00:00Z,30.6671,-87.9365,4.621,0.38,1111122 
DISL,ioos:station:DISL:MHPA:1,2010-07-04T16:30:00Z,30.6671,-87.9365,4.59,0.38,1111122 
DISL,ioos:station:DISL:MHPA:1,2010-07-04T17:00:00Z,30.6671,-87.9365,4.519,0.38,1111122 
DISL,ioos:station:DISL:MHPA:1,2010-07-04T17:30:00Z,30.6671,-87.9365,4.454,0.37,1111122 
DISL,ioos:station:DISL:MHPA:1,2010-07-04T18:00:00Z,30.6671,-87.9365,4.436,0.38,1111122 
DISL,ioos:station:DISL:MHPA:1,2010-07-04T18:30:00Z,30.6671,-87.9365,4.436,0.38,1111122 
DISL,ioos:station:DISL:MHPA:1,2010-07-04T19:00:00Z,30.6671,-87.9365,4.398,0.38,1111122 
DISL,ioos:station:DISL:MHPA:1,2010-07-04T19:30:00Z,30.6671,-87.9365,4.353,0.38,1111122 
DISL,ioos:station:DISL:MHPA:1,2010-07-04T20:00:00Z,30.6671,-87.9365,4.322,0.38,1111122 
DISL,ioos:station:DISL:MHPA:1,2010-07-04T20:30:00Z,30.6671,-87.9365,4.325,0.37,1111122 
DISL,ioos:station:DISL:MHPA:1,2010-07-04T21:00:00Z,30.6671,-87.9365,4.355,0.37,1111122 
DISL,ioos:station:DISL:MHPA:1,2010-07-04T21:30:00Z,30.6671,-87.9365,4.286,0.36,1111122 
DISL,ioos:station:DISL:MHPA:1,2010-07-04T22:00:00Z,30.6671,-87.9365,4.336,0.36,1111122 
DISL,ioos:station:DISL:MHPA:1,2010-07-04T22:30:00Z,30.6671,-87.9365,4.424,0.37,1111122 
DISL,ioos:station:DISL:MHPA:1,2010-07-04T23:00:00Z,30.6671,-87.9365,4.419,0.37,1111122 
DISL,ioos:station:DISL:MHPA:1,2010-07-04T23:30:00Z,30.6671,-87.9365,4.31,0.36,1111122 
DISL,ioos:station:DISL:MHPA:1,2010-07-05T00:00:00Z,30.6671,-87.9365,4.321,0.36,1111122 
DISL,ioos:station:DISL:MHPA:1,2010-07-05T00:30:00Z,30.6671,-87.9365,4.376,0.36,1111122 
DISL,ioos:station:DISL:MHPA:1,2010-07-05T01:00:00Z,30.6671,-87.9365,4.552,0.36,1111122 
DISL,ioos:station:DISL:MHPA:1,2010-07-05T01:30:00Z,30.6671,-87.9365,4.533,0.37,1111122 
DISL,ioos:station:DISL:MHPA:1,2010-07-05T02:00:00Z,30.6671,-87.9365,4.489,0.37,1111122 
DISL,ioos:station:DISL:MHPA:1,2010-07-05T02:30:00Z,30.6671,-87.9365,4.443,0.37,1111122 
DISL,ioos:station:DISL:MHPA:1,2010-07-05T03:00:00Z,30.6671,-87.9365,4.439,0.37,1111122 
DISL,ioos:station:DISL:MHPA:1,2010-07-05T03:30:00Z,30.6671,-87.9365,4.445,0.37,1111122 
DISL,ioos:station:DISL:MHPA:1,2010-07-05T04:00:00Z,30.6671,-87.9365,4.437,0.37,1111122 
DISL,ioos:station:DISL:MHPA:1,2010-07-05T04:30:00Z,30.6671,-87.9365,4.463,0.37,1111122 
DISL,ioos:station:DISL:MHPA:1,2010-07-05T05:00:00Z,30.6671,-87.9365,4.504,0.37,1111122 
DISL,ioos:station:DISL:MHPA:1,2010-07-05T05:30:00Z,30.6671,-87.9365,4.57,0.37,1111122 
DISL,ioos:station:DISL:MHPA:1,2010-07-05T06:00:00Z,30.6671,-87.9365,4.537,0.37,1111122 
DISL,ioos:station:DISL:MHPA:1,2010-07-05T06:30:00Z,30.6671,-87.9365,4.545,0.37,1111122 
DISL,ioos:station:DISL:MHPA:1,2010-07-05T07:00:00Z,30.6671,-87.9365,4.7,0.37,1111122 
DISL,ioos:station:DISL:MHPA:1,2010-07-05T07:30:00Z,30.6671,-87.9365,4.738,0.37,1111122 
DISL,ioos:station:DISL:MHPA:1,2010-07-05T08:00:00Z,30.6671,-87.9365,4.818,0.37,1111122 
DISL,ioos:station:DISL:MHPA:1,2010-07-05T08:30:00Z,30.6671,-87.9365,4.885,0.37,1111122 
DISL,ioos:station:DISL:MHPA:1,2010-07-05T09:00:00Z,30.6671,-87.9365,4.97,0.37,1111122 
DISL,ioos:station:DISL:MHPA:1,2010-07-05T09:30:00Z,30.6671,-87.9365,5.052,0.37,1111122 
DISL,ioos:station:DISL:MHPA:1,2010-07-05T10:00:00Z,30.6671,-87.9365,5.123,0.37,1111122 
DISL,ioos:station:DISL:MHPA:1,2010-07-05T10:30:00Z,30.6671,-87.9365,5.089,0.37,1111122 
DISL,ioos:station:DISL:MHPA:1,2010-07-05T11:00:00Z,30.6671,-87.9365,5.207,0.37,1111122 
DISL,ioos:station:DISL:MHPA:1,2010-07-05T11:30:00Z,30.6671,-87.9365,5.126,0.37,1111122 
DISL,ioos:station:DISL:MHPA:1,2010-07-05T12:00:00Z,30.6671,-87.9365,5.072,0.37,1111122 
DISL,ioos:station:DISL:MHPA:1,2010-07-05T12:30:00Z,30.6671,-87.9365,5.242,0.37,1111122 
DISL,ioos:station:DISL:MHPA:1,2010-07-05T13:00:00Z,30.6671,-87.9365,5.432,0.37,1111122 
DISL,ioos:station:DISL:MHPA:1,2010-07-05T13:30:00Z,30.6671,-87.9365,5.287,0.37,1111122 
DISL,ioos:station:DISL:MHPA:1,2010-07-05T14:00:00Z,30.6671,-87.9365,5.098,0.37,1111122 
DISL,ioos:station:DISL:MHPA:1,2010-07-05T14:30:00Z,30.6671,-87.9365,5.136,0.38,1111122 
DISL,ioos:station:DISL:MHPA:1,2010-07-05T15:00:00Z,30.6671,-87.9365,4.93,0.38,1111122 
DISL,ioos:station:DISL:MHPA:1,2010-07-05T15:30:00Z,30.6671,-87.9365,4.902,0.37,1111122 
DISL,ioos:station:DISL:MHPA:1,2010-07-05T16:00:00Z,30.6671,-87.9365,4.758,0.37,1111122 
DISL,ioos:station:DISL:MHPA:1,2010-07-05T16:30:00Z,30.6671,-87.9365,4.725,0.37,1111122 
DISL,ioos:station:DISL:MHPA:1,2010-07-05T17:00:00Z,30.6671,-87.9365,4.643,0.37,1111122 
DISL,ioos:station:DISL:MHPA:1,2010-07-05T17:30:00Z,30.6671,-87.9365,4.531,0.37,1111122 
DISL,ioos:station:DISL:MHPA:1,2010-07-05T18:00:00Z,30.6671,-87.9365,4.491,0.37,1111122 
DISL,ioos:station:DISL:MHPA:1,2010-07-05T18:30:00Z,30.6671,-87.9365,4.434,0.37,1111122 
DISL,ioos:station:DISL:MHPA:1,2010-07-05T19:00:00Z,30.6671,-87.9365,4.338,0.38,1111122 
DISL,ioos:station:DISL:MHPA:1,2010-07-05T19:30:00Z,30.6671,-87.9365,4.306,0.38,1111122 
DISL,ioos:station:DISL:MHPA:1,2010-07-05T20:00:00Z,30.6671,-87.9365,4.238,0.38,1111122 
DISL,ioos:station:DISL:MHPA:1,2010-07-05T20:30:00Z,30.6671,-87.9365,4.244,0.38,1111122 
DISL,ioos:station:DISL:MHPA:1,2010-07-05T21:00:00Z,30.6671,-87.9365,4.159,0.38,1111122 
DISL,ioos:station:DISL:MHPA:1,2010-07-05T21:30:00Z,30.6671,-87.9365,4.073,0.38,1111122 
DISL,ioos:station:DISL:MHPA:1,2010-07-05T22:00:00Z,30.6671,-87.9365,4.028,0.38,1111122 
DISL,ioos:station:DISL:MHPA:1,2010-07-05T22:30:00Z,30.6671,-87.9365,4.06,0.38,1111122 
DISL,ioos:station:DISL:MHPA:1,2010-07-05T23:00:00Z,30.6671,-87.9365,4.107,0.38,1111122 
DISL,ioos:station:DISL:MHPA:1,2010-07-05T23:30:00Z,30.6671,-87.9365,4.018,0.39,1111122 
DISL,ioos:station:DISL:MHPA:1,2010-07-06T00:00:00Z,30.6671,-87.9365,4.013,0.41,1111122 
DISL,ioos:station:DISL:MHPA:1,2010-07-06T00:30:00Z,30.6671,-87.9365,4.029,0.41,1111122 
DISL,ioos:station:DISL:MHPA:1,2010-07-06T01:00:00Z,30.6671,-87.9365,3.889,0.4,1111122 
DISL,ioos:station:DISL:MHPA:1,2010-07-06T01:30:00Z,30.6671,-87.9365,3.984,0.4,1111122 
DISL,ioos:station:DISL:MHPA:1,2010-07-06T02:00:00Z,30.6671,-87.9365,4.017,0.4,1111122 
DISL,ioos:station:DISL:MHPA:1,2010-07-06T02:30:00Z,30.6671,-87.9365,3.995,0.4,1111122 
DISL,ioos:station:DISL:MHPA:1,2010-07-06T03:00:00Z,30.6671,-87.9365,4.103,0.41,1111122 
DISL,ioos:station:DISL:MHPA:1,2010-07-06T03:30:00Z,30.6671,-87.9365,4.173,0.43,1111122 
DISL,ioos:station:DISL:MHPA:1,2010-07-06T04:00:00Z,30.6671,-87.9365,4.302,0.43,1111122 
DISL,ioos:station:DISL:MHPA:1,2010-07-06T04:30:00Z,30.6671,-87.9365,4.284,0.42,1111122 
DISL,ioos:station:DISL:MHPA:1,2010-07-06T05:00:00Z,30.6671,-87.9365,4.398,0.42,1111122 
DISL,ioos:station:DISL:MHPA:1,2010-07-06T05:30:00Z,30.6671,-87.9365,4.451,0.43,1111122 
DISL,ioos:station:DISL:MHPA:1,2010-07-06T06:30:00Z,30.6671,-87.9365,4.601,0.45,1111122 
DISL,ioos:station:DISL:MHPA:1,2010-07-06T07:00:00Z,30.6671,-87.9365,4.669,0.45,1111122 
DISL,ioos:station:DISL:MHPA:1,2010-07-06T07:30:00Z,30.6671,-87.9365,4.791,0.44,1111122 
DISL,ioos:station:DISL:MHPA:1,2010-07-06T08:00:00Z,30.6671,-87.9365,4.821,0.44,1111122 
DISL,ioos:station:DISL:MHPA:1,2010-07-06T08:30:00Z,30.6671,-87.9365,4.836,0.44,1111122 
DISL,ioos:station:DISL:MHPA:1,2010-07-06T09:00:00Z,30.6671,-87.9365,4.885,0.44,1111122 
DISL,ioos:station:DISL:MHPA:1,2010-07-06T09:30:00Z,30.6671,-87.9365,4.977,0.44,1111122 
DISL,ioos:station:DISL:MHPA:1,2010-07-06T10:00:00Z,30.6671,-87.9365,5.112,0.44,1111122 
DISL,ioos:station:DISL:MHPA:1,2010-07-06T10:30:00Z,30.6671,-87.9365,5.172,0.43,1111122 
DISL,ioos:station:DISL:MHPA:1,2010-07-06T11:00:00Z,30.6671,-87.9365,5.264,0.43,1111122 
DISL,ioos:station:DISL:MHPA:1,2010-07-06T11:30:00Z,30.6671,-87.9365,5.384,0.42,1111122 
DISL,ioos:station:DISL:MHPA:1,2010-07-06T12:00:00Z,30.6671,-87.9365,5.451,0.42,1111122 
DISL,ioos:station:DISL:MHPA:1,2010-07-06T12:30:00Z,30.6671,-87.9365,5.318,0.42,1111122 
DISL,ioos:station:DISL:MHPA:1,2010-07-06T13:00:00Z,30.6671,-87.9365,5.052,0.42,1111122 
DISL,ioos:station:DISL:MHPA:1,2010-07-06T13:30:00Z,30.6671,-87.9365,5.053,0.42,1111122 
DISL,ioos:station:DISL:MHPA:1,2010-07-06T14:00:00Z,30.6671,-87.9365,5.19,0.42,1111122 
DISL,ioos:station:DISL:MHPA:1,2010-07-06T14:30:00Z,30.6671,-87.9365,5.088,0.42,1111122 
DISL,ioos:station:DISL:MHPA:1,2010-07-06T15:00:00Z,30.6671,-87.9365,5.037,0.42,1111122 
DISL,ioos:station:DISL:MHPA:1,2010-07-06T15:30:00Z,30.6671,-87.9365,4.895,0.42,1111122 
DISL,ioos:station:DISL:MHPA:1,2010-07-06T16:00:00Z,30.6671,-87.9365,4.831,0.42,1111122 